| time (UTC) | temp C | wind direction | speed KPH | gust KPH | rain 1hr cm | rain 24hr cm | rain mn cm | humidity % | barometer mb |
| 20260506045024 | 17 | 333 | 4.8 | 12.9 | 0.00 | 0.00 | 0.00 | 80 | 1010.7 |
| 20260506044043 | 17 | 349 | 6.4 | 14.5 | 0.00 | 0.00 | 0.00 | 79 | 1010.6 |
| 20260506043024 | 18 | 356 | 4.8 | 11.3 | 0.00 | 0.00 | 0.00 | 80 | 1010.5 |
| 20260506042024 | 18 | 345 | 4.8 | 14.5 | 0.00 | 0.00 | 0.00 | 80 | 1010.5 |
| 20260506041024 | 18 | 322 | 6.4 | 12.9 | 0.00 | 0.00 | 0.00 | 80 | 1010.1 |
| 20260506040024 | 18 | 333 | 6.4 | 20.9 | 0.00 | 0.00 | 0.00 | 79 | 1009.9 |
| 20260506035024 | 19 | 312 | 4.8 | 11.3 | 0.00 | 0.00 | 0.00 | 78 | 1009.9 |
| 20260506034025 | 19 | 337 | 6.4 | 14.5 | 0.00 | 0.00 | 0.00 | 78 | 1009.7 |
| 20260506033043 | 20 | 347 | 6.4 | 16.1 | 0.00 | 0.00 | 0.00 | 78 | 1009.5 |
| 20260506032023 | 20 | 321 | 4.8 | 11.3 | 0.00 | 0.00 | 0.00 | 77 | 1009.6 |
| 20260506031043 | 21 | 317 | 4.8 | 12.9 | 0.00 | 0.00 | 0.00 | 77 | 1009.3 |
| 20260506030026 | 21 | 335 | 6.4 | 12.9 | 0.00 | 0.00 | 0.00 | 76 | 1009.3 |
| 20260506025024 | 21 | 346 | 4.8 | 9.7 | 0.00 | 0.00 | 0.00 | 77 | 1009.0 |
| 20260506024024 | 21 | 329 | 4.8 | 12.9 | 0.00 | 0.00 | 0.00 | 76 | 1008.5 |
| 20260506023024 | 22 | 350 | 6.4 | 16.1 | 0.00 | 0.00 | 0.00 | 75 | 1008.2 |
| 20260506022024 | 22 | 341 | 4.8 | 11.3 | 0.00 | 0.00 | 0.00 | 73 | 1007.9 |
| 20260506021024 | 22 | 311 | 3.2 | 6.4 | 0.00 | 0.00 | 0.00 | 73 | 1007.6 |
| 20260506020044 | 22 | 309 | 4.8 | 9.7 | 0.00 | 0.00 | 0.00 | 72 | 1007.4 |
| 20260506015025 | 23 | 320 | 4.8 | 12.9 | 0.00 | 0.00 | 0.00 | 71 | 1007.4 |
| 20260506014045 | 23 | 315 | 3.2 | 9.7 | 0.00 | 0.00 | 0.00 | 71 | 1007.5 |
| 20260506013025 | 23 | 344 | 4.8 | 11.3 | 0.00 | 0.00 | 0.00 | 71 | 1007.2 |
| 20260506012025 | 23 | 309 | 4.8 | 9.7 | 0.00 | 0.00 | 0.00 | 70 | 1007.4 |
| 20260506011025 | 23 | 337 | 4.8 | 11.3 | 0.00 | 0.00 | 0.00 | 70 | 1007.0 |
| 20260506010024 | 24 | 356 | 4.8 | 12.9 | 0.00 | 0.00 | 0.00 | 70 | 1006.8 |
| 20260506005024 | 25 | 359 | 6.4 | 14.5 | 0.00 | 0.00 | 0.00 | 69 | 1006.4 |
| 20260506004024 | 25 | 324 | 4.8 | 12.9 | 0.00 | 0.00 | 0.00 | 68 | 1006.5 |
| 20260506003044 | 26 | 318 | 4.8 | 16.1 | 0.00 | 0.00 | 0.00 | 66 | 1006.3 |
| 20260506002024 | 26 | 331 | 4.8 | 14.5 | 0.00 | 0.00 | 0.00 | 65 | 1006.5 |
| 20260506001025 | 26 | 314 | 3.2 | 12.9 | 0.00 | 0.00 | 0.00 | 64 | 1006.5 |
| 20260506000025 | 27 | 319 | 4.8 | 9.7 | 0.00 | 0.00 | 0.00 | 64 | 1005.8 |
| 20260505235045 | 27 | 328 | 6.4 | 11.3 | 0.00 | 0.00 | 0.00 | 63 | 1005.6 |
| 20260505234045 | 29 | 313 | 4.8 | 17.7 | 0.00 | 0.00 | 0.00 | 58 | 1005.5 |
| 20260505233025 | 30 | 313 | 4.8 | 9.7 | 0.00 | 0.00 | 0.00 | 54 | 1005.6 |
| 20260505232025 | 30 | 294 | 3.2 | 6.4 | 0.00 | 0.00 | 0.00 | 52 | 1005.4 |
| 20260505231024 | 30 | 280 | 3.2 | 11.3 | 0.00 | 0.00 | 0.00 | 51 | 1005.1 |
| 20260505230024 | 31 | 239 | 6.4 | 17.7 | 0.00 | 0.00 | 0.00 | 53 | 1004.9 |
| 20260505225024 | 31 | 203 | 6.4 | 11.3 | 0.00 | 0.00 | 0.00 | 56 | 1004.8 |
| 20260505224024 | 31 | 209 | 6.4 | 14.5 | 0.00 | 0.00 | 0.00 | 56 | 1004.8 |
| 20260505223024 | 31 | 231 | 4.8 | 12.9 | 0.00 | 0.00 | 0.00 | 58 | 1004.6 |
| 20260505222024 | 31 | 211 | 4.8 | 11.3 | 0.00 | 0.00 | 0.00 | 58 | 1004.4 |
| 20260505221024 | 31 | 207 | 8.0 | 17.7 | 0.00 | 0.00 | 0.00 | 58 | 1004.6 |
| 20260505220025 | 31 | 203 | 8.0 | 17.7 | 0.00 | 0.00 | 0.00 | 59 | 1004.6 |
| 20260505215025 | 32 | 214 | 6.4 | 17.7 | 0.00 | 0.00 | 0.00 | 56 | 1004.7 |
| 20260505214025 | 32 | 200 | 6.4 | 17.7 | 0.00 | 0.00 | 0.00 | 56 | 1004.9 |
| 20260505213025 | 32 | 226 | 4.8 | 11.3 | 0.00 | 0.00 | 0.00 | 56 | 1004.9 |
| 20260505212023 | 32 | 223 | 8.0 | 20.9 | 0.00 | 0.00 | 0.00 | 57 | 1005.0 |
| 20260505211024 | 31 | 207 | 9.7 | 17.7 | 0.00 | 0.00 | 0.00 | 59 | 1005.0 |
| 20260505210024 | 31 | 208 | 9.7 | 20.9 | 0.00 | 0.00 | 0.00 | 60 | 1005.1 |
| 20260505205024 | 31 | 220 | 8.0 | 20.9 | 0.00 | 0.00 | 0.00 | 62 | 1005.3 |
| 20260505204024 | 31 | 210 | 9.7 | 25.7 | 0.00 | 0.00 | 0.00 | 62 | 1005.4 |
| 20260505203024 | 31 | 202 | 9.7 | 22.5 | 0.00 | 0.00 | 0.00 | 63 | 1005.5 |
| 20260505202024 | 30 | 222 | 8.0 | 25.7 | 0.00 | 0.00 | 0.00 | 64 | 1005.6 |
| 20260505201024 | 30 | 206 | 11.3 | 24.1 | 0.00 | 0.00 | 0.00 | 63 | 1005.5 |
| 20260505200045 | 30 | 203 | 11.3 | 24.1 | 0.00 | 0.00 | 0.00 | 65 | 1005.8 |
| 20260505195045 | 30 | 207 | 9.7 | 24.1 | 0.00 | 0.00 | 0.00 | 65 | 1005.8 |
| 20260505194025 | 30 | 201 | 14.5 | 29.0 | 0.00 | 0.00 | 0.00 | 65 | 1005.9 |
| 20260505193044 | 30 | 218 | 8.0 | 20.9 | 0.00 | 0.00 | 0.00 | 65 | 1005.9 |
| 20260505192024 | 29 | 214 | 14.5 | 27.4 | 0.00 | 0.00 | 0.00 | 68 | 1005.8 |
| 20260505191024 | 28 | 217 | 9.7 | 25.7 | 0.00 | 0.00 | 0.00 | 68 | 1005.9 |
| 20260505190024 | 28 | 209 | 9.7 | 20.9 | 0.00 | 0.00 | 0.00 | 70 | 1006.0 |
| 20260505185024 | 28 | 213 | 11.3 | 24.1 | 0.00 | 0.00 | 0.00 | 69 | 1006.1 |
| 20260505184024 | 28 | 204 | 11.3 | 25.7 | 0.00 | 0.00 | 0.00 | 70 | 1006.0 |
| 20260505183024 | 28 | 210 | 9.7 | 25.7 | 0.00 | 0.00 | 0.00 | 71 | 1006.2 |
| 20260505182025 | 27 | 205 | 14.5 | 30.6 | 0.00 | 0.00 | 0.00 | 72 | 1006.2 |
| 20260505181105 | 27 | 203 | 14.5 | 35.4 | 0.00 | 0.00 | 0.00 | 72 | 1006.3 |
| 20260505180025 | 27 | 210 | 14.5 | 35.4 | 0.00 | 0.00 | 0.00 | 73 | 1006.3 |
| 20260505175025 | 27 | 197 | 14.5 | 33.8 | 0.00 | 0.00 | 0.00 | 73 | 1006.1 |
| 20260505174025 | 27 | 202 | 9.7 | 30.6 | 0.00 | 0.00 | 0.00 | 73 | 1006.4 |
| 20260505173023 | 27 | 206 | 14.5 | 30.6 | 0.00 | 0.00 | 0.00 | 74 | 1006.3 |
| 20260505172023 | 27 | 218 | 9.7 | 24.1 | 0.00 | 0.00 | 0.00 | 73 | 1006.3 |
| 20260505171044 | 27 | 201 | 9.7 | 17.7 | 0.00 | 0.00 | 0.00 | 74 | 1006.3 |
| 20260505170024 | 26 | 214 | 11.3 | 24.1 | 0.00 | 0.00 | 0.00 | 75 | 1006.6 |
| 20260505165024 | 26 | 205 | 11.3 | 29.0 | 0.00 | 0.00 | 0.00 | 76 | 1006.4 |
| 20260505164104 | 26 | 207 | 11.3 | 20.9 | 0.00 | 0.00 | 0.00 | 76 | 1006.3 |
| 20260505163024 | 26 | 205 | 14.5 | 29.0 | 0.00 | 0.00 | 0.00 | 76 | 1006.3 |
| 20260505162024 | 25 | 205 | 14.5 | 33.8 | 0.00 | 0.00 | 0.00 | 77 | 1006.4 |
| 20260505161025 | 26 | 194 | 9.7 | 22.5 | 0.00 | 0.00 | 0.00 | 77 | 1006.3 |
| 20260505153025 | 25 | 203 | 12.9 | 35.4 | 0.00 | 0.00 | 0.00 | 79 | 1006.1 |
| 20260505152023 | 25 | 196 | 16.1 | 37.0 | 0.00 | 0.00 | 0.00 | 80 | 1006.1 |
| 20260505151044 | 24 | 215 | 14.5 | 35.4 | 0.00 | 0.00 | 0.00 | 80 | 1006.3 |
| 20260505125024 | 22 | 201 | 12.9 | 25.7 | 0.00 | 0.00 | 0.00 | 87 | 1005.6 |
| 20260505124024 | 22 | 209 | 11.3 | 25.7 | 0.00 | 0.00 | 0.00 | 87 | 1005.7 |
| 20260505123024 | 22 | 198 | 11.3 | 25.7 | 0.00 | 0.00 | 0.00 | 87 | 1005.4 |
| 20260505122024 | 22 | 207 | 9.7 | 22.5 | 0.00 | 0.00 | 0.00 | 87 | 1005.3 |
| 20260505121024 | 22 | 203 | 11.3 | 29.0 | 0.00 | 0.00 | 0.00 | 87 | 1005.3 |
| 20260505120025 | 22 | 206 | 12.9 | 25.7 | 0.00 | 0.00 | 0.00 | 87 | 1005.3 |
| 20260505115023 | 22 | 199 | 12.9 | 24.1 | 0.00 | 0.00 | 0.00 | 87 | 1005.2 |
| 20260505114023 | 22 | 204 | 12.9 | 25.7 | 0.00 | 0.00 | 0.00 | 87 | 1005.2 |
| 20260505113023 | 22 | 206 | 9.7 | 25.7 | 0.00 | 0.00 | 0.00 | 87 | 1004.9 |
| 20260505112023 | 22 | 202 | 11.3 | 24.1 | 0.00 | 0.00 | 0.00 | 87 | 1005.0 |
| 20260505111044 | 22 | 201 | 11.3 | 25.7 | 0.00 | 0.00 | 0.00 | 87 | 1005.1 |
| 20260505102025 | 22 | 207 | 8.0 | 20.9 | 0.00 | 0.00 | 0.00 | 87 | 1005.2 |
| 20260505101045 | 22 | 195 | 11.3 | 25.7 | 0.00 | 0.00 | 0.00 | 86 | 1005.2 |
| 20260505100023 | 22 | 208 | 11.3 | 24.1 | 0.00 | 0.00 | 0.00 | 87 | 1005.4 |
| 20260505095023 | 22 | 211 | 8.0 | 20.9 | 0.00 | 0.00 | 0.00 | 87 | 1005.3 |
| 20260505094025 | 22 | 217 | 9.7 | 20.9 | 0.00 | 0.00 | 0.00 | 87 | 1005.3 |
| 20260505093045 | 22 | 208 | 9.7 | 20.9 | 0.00 | 0.00 | 0.00 | 87 | 1005.5 |
| 20260505092025 | 21 | 197 | 11.3 | 29.0 | 0.00 | 0.00 | 0.00 | 87 | 1005.6 |
| 20260505091025 | 21 | 214 | 11.3 | 22.5 | 0.00 | 0.00 | 0.00 | 87 | 1005.8 |
| 20260505090024 | 21 | 196 | 11.3 | 33.8 | 0.00 | 0.00 | 0.00 | 87 | 1005.5 |
| 20260505085024 | 21 | 204 | 9.7 | 22.5 | 0.00 | 0.00 | 0.00 | 87 | 1005.6 |
| 20260505084024 | 21 | 202 | 12.9 | 29.0 | 0.00 | 0.00 | 0.00 | 87 | 1005.6 |
| 20260505083024 | 21 | 204 | 9.7 | 22.5 | 0.00 | 0.00 | 0.00 | 87 | 1005.6 |
| 20260505082024 | 21 | 211 | 11.3 | 17.7 | 0.00 | 0.00 | 0.00 | 87 | 1005.7 |
| 20260505081024 | 21 | 198 | 8.0 | 22.5 | 0.00 | 0.00 | 0.00 | 86 | 1005.7 |
| 20260505080025 | 21 | 195 | 9.7 | 17.7 | 0.00 | 0.00 | 0.00 | 86 | 1005.8 |
| 20260505075105 | 22 | 206 | 17.7 | 33.8 | 0.00 | 0.00 | 0.00 | 85 | 1005.9 |
| 20260505074043 | 22 | 198 | 12.9 | 25.7 | 0.00 | 0.00 | 0.00 | 85 | 1006.3 |
| 20260505073043 | 22 | 198 | 12.9 | 24.1 | 0.00 | 0.00 | 0.00 | 84 | 1006.4 |
| 20260505072043 | 22 | 197 | 8.0 | 24.1 | 0.00 | 0.00 | 0.00 | 83 | 1006.6 |
| 20260505071023 | 22 | 208 | 12.9 | 27.4 | 0.00 | 0.00 | 0.00 | 83 | 1006.7 |
| 20260505070023 | 22 | 200 | 9.7 | 22.5 | 0.00 | 0.00 | 0.00 | 82 | 1006.8 |
| 20260505065024 | 22 | 201 | 12.9 | 29.0 | 0.00 | 0.00 | 0.00 | 82 | 1006.9 |
| 20260505064024 | 22 | 215 | 9.7 | 27.4 | 0.00 | 0.00 | 0.00 | 81 | 1007.0 |
| 20260505063044 | 22 | 200 | 12.9 | 24.1 | 0.00 | 0.00 | 0.00 | 81 | 1007.0 |
| 20260505062024 | 22 | 192 | 14.5 | 24.1 | 0.00 | 0.00 | 0.00 | 80 | 1007.1 |
| 20260505061023 | 22 | 204 | 11.3 | 17.7 | 0.00 | 0.00 | 0.00 | 80 | 1007.1 |
| 20260505060023 | 22 | 207 | 8.0 | 20.9 | 0.00 | 0.00 | 0.00 | 79 | 1007.0 |
| 20260505055024 | 22 | 208 | 9.7 | 17.7 | 0.00 | 0.00 | 0.00 | 79 | 1007.1 |
| 20260505054024 | 22 | 221 | 8.0 | 22.5 | 0.00 | 0.00 | 0.00 | 79 | 1007.1 |
| 20260505053024 | 22 | 209 | 11.3 | 27.4 | 0.00 | 0.00 | 0.00 | 78 | 1007.2 |
| 20260505052044 | 22 | 202 | 9.7 | 20.9 | 0.00 | 0.00 | 0.00 | 78 | 1007.2 |
| 20260505051024 | 22 | 196 | 11.3 | 27.4 | 0.00 | 0.00 | 0.00 | 78 | 1007.3 |